Вернуться в каталог

FENGYUN 1C DEB

АктивенSSO
NORAD 29947·DEBRIS·🇨🇳 China

Запущен May 10, 1999 с Taiyuan Satellite Launch Center

Loading…

Ближайшие Пролёты (ближайшие 24 часа)

TLE

СвежийSource: Space-Track

Эпоха: Sep 14, 2026, 08:29 UTC

1 29947U 99025JV  26257.35356579 -.00000004  00000-0  24458-4 0  9993
2 29947  98.8109 284.5183 0041097  71.8173 356.3840 14.03226060  6141

Отслеживайте FENGYUN 1C DEB в реальном времени с AllMySat

Download on the App Store